This is the latest recevied weather packets stored in our database for station/object KY4JDC. If no packets are shown the sender has not sent any weather packets the latest 1 day(s).
| Time | Temp. | Humidity | Pressure | Rain* | Wind** | Luminosity | Snow |
|---|---|---|---|---|---|---|---|
| 1778041906 | 10.56° C | 97% | 1011.2 hPa | 0 mm | 0 m/s | 0 W/m² | - |
| 1778041605 | 10.56° C | 97% | 1011.2 hPa | 0 mm | 0.45 m/s, 317° | 0 W/m² | - |
| 1778041303 | 10.56° C | 97% | 1011.6 hPa | 0 mm | 0.45 m/s, 352° | 0 W/m² | - |
| 1778041001 | 10.56° C | 97% | 1011.5 hPa | 0 mm | 2.24 m/s, 218° | 0 W/m² | - |
| 1778040698 | 10.56° C | 97% | 1011.1 hPa | 1.27 mm | 0.45 m/s, 43° | 0 W/m² | - |
| 1778040395 | 10.56° C | 97% | 1011.2 hPa | 1.27 mm | 0 m/s | 0 W/m² | - |
| 1778040092 | 10.56° C | 97% | 1011.2 hPa | 0 mm | 0 m/s | 0 W/m² | - |
| 1778039789 | 10.56° C | 97% | 1011.3 hPa | 0 mm | 0.45 m/s, 44° | 0 W/m² | - |
| 1778039485 | 10.56° C | 97% | 1011.1 hPa | 0 mm | 0.45 m/s, 358° | 0 W/m² | - |
| 1778039183 | 10.56° C | 96% | 1011.1 hPa | 0 mm | 0.45 m/s, 23° | 0 W/m² | - |
| 1778038880 | 10.56° C | 96% | 1010.9 hPa | 1.78 mm | 0.45 m/s, 43° | 0 W/m² | - |
| 1778038577 | 10.56° C | 96% | 1011 hPa | 3.56 mm | 0 m/s | 0 W/m² | - |
| 1778038274 | 10.56° C | 96% | 1010.7 hPa | 3.05 mm | 0 m/s | 0 W/m² | - |
| 1778037971 | 10.56° C | 96% | 1010.4 hPa | 1.27 mm | 0.45 m/s, 40° | 0 W/m² | - |
| 1778037668 | 10.56° C | 97% | 1010.5 hPa | 1.78 mm | 0.45 m/s, 48° | 0 W/m² | - |
| 1778037365 | 11.11° C | 97% | 1010.5 hPa | 1.78 mm | 1.34 m/s, 29° | 0 W/m² | - |
| 1778037062 | 11.11° C | 97% | 1010.2 hPa | 0 mm | 0 m/s | 0 W/m² | - |
| 1778036761 | 11.11° C | 97% | 1010.1 hPa | 3.05 mm | 0.89 m/s, 16° | 0 W/m² | - |
| 1778036457 | 11.11° C | 97% | 1010.2 hPa | 3.05 mm | 0.45 m/s, 118° | 0 W/m² | - |
| 1778036154 | 11.11° C | 97% | 1010.1 hPa | 0 mm | 0.89 m/s, 1° | 0 W/m² | - |
| 1778035850 | 11.67° C | 97% | 1010.1 hPa | 0 mm | 0.89 m/s, 356° | 0 W/m² | - |
| 1778035547 | 11.67° C | 97% | 1009.8 hPa | 0 mm | 0.89 m/s, 210° | 0 W/m² | - |
| 1778035244 | 11.67° C | 97% | 1009.8 hPa | 1.27 mm | 1.34 m/s, 6° | 0 W/m² | - |
| 1778034940 | 11.67° C | 97% | 1009.6 hPa | 3.05 mm | 0.89 m/s, 70° | 0 W/m² | - |
| 1778034637 | 12.22° C | 97% | 1009.9 hPa | 1.78 mm | 0.45 m/s, 18° | 0 W/m² | - |
* Rain latest hour (hover to see other rain measurements)
** Current wind speed in m/s (hover to see current wind gust speed)